Time,TemperatureF,DewpointF,PressureIn,WindDirection,WindDirectionDegrees,WindSpeedMPH,WindSpeedGustMPH,Humidity,HourlyPrecipIn,Conditions,Clouds,dailyrainin,SoftwareType,DateUTC
2013-02-20 00:02:00,36.0,18.0,29.91,NNW,342,5.0,15.0,48,0.00,,,0.02,,2013-02-20 05:02:00,
2013-02-20 00:12:00,36.0,18.0,29.91,NNW,342,5.0,15.0,48,0.00,,,0.02,,2013-02-20 05:12:00,
2013-02-20 00:22:00,36.0,18.0,29.91,WNW,297,4.0,21.0,48,0.00,,,0.02,,2013-02-20 05:22:00,
2013-02-20 00:32:00,35.0,18.0,29.91,NNW,348,6.0,15.0,49,0.00,,,0.02,,2013-02-20 05:32:00,
2013-02-20 00:43:00,35.0,18.0,29.91,NNW,348,6.0,15.0,49,0.00,,,0.02,,2013-02-20 05:43:00,
2013-02-20 00:52:00,35.0,18.0,29.92,NE,37,3.0,13.0,49,0.00,,,0.02,,2013-02-20 05:52:00,
2013-02-20 01:01:00,35.0,19.0,29.92,North,10,6.0,14.0,51,0.00,,,0.02,,2013-02-20 06:01:00,
2013-02-20 01:11:00,35.0,19.0,29.93,North,352,3.0,16.0,51,0.00,,,0.02,,2013-02-20 06:11:00,
2013-02-20 01:21:00,35.0,19.0,29.93,North,352,3.0,16.0,51,0.00,,,0.02,,2013-02-20 06:21:00,
2013-02-20 01:32:00,35.0,19.0,29.93,North,352,3.0,16.0,51,0.00,,,0.02,,2013-02-20 06:32:00,
2013-02-20 01:42:00,35.0,19.0,29.93,North,352,3.0,16.0,51,0.00,,,0.02,,2013-02-20 06:42:00,
2013-02-20 01:52:00,34.0,18.0,29.93,NNE,28,5.0,14.0,51,0.00,,,0.02,,2013-02-20 06:52:00,
2013-02-20 02:01:00,34.0,17.0,29.93,NNW,341,5.0,15.0,50,0.00,,,0.02,,2013-02-20 07:01:00,
2013-02-20 02:11:00,34.0,17.0,29.93,NNW,341,5.0,15.0,50,0.00,,,0.02,,2013-02-20 07:11:00,
2013-02-20 02:21:00,33.0,15.0,29.93,North,11,6.0,20.0,48,0.00,,,0.02,,2013-02-20 07:21:00,
2013-02-20 02:31:00,33.0,15.0,29.93,North,1,9.0,15.0,48,0.00,,,0.02,,2013-02-20 07:31:00,
2013-02-20 02:42:00,33.0,15.0,29.93,North,1,9.0,15.0,48,0.00,,,0.02,,2013-02-20 07:42:00,
2013-02-20 02:52:00,33.0,15.0,29.93,North,1,9.0,15.0,48,0.00,,,0.02,,2013-02-20 07:52:00,
2013-02-20 03:05:00,32.0,15.0,29.93,NE,43,5.0,13.0,48,0.00,,,0.02,,2013-02-20 08:05:00,
2013-02-20 03:11:00,32.0,15.0,29.93,NE,39,5.0,13.0,48,0.00,,,0.02,,2013-02-20 08:11:00,
2013-02-20 03:22:00,32.0,15.0,29.93,NE,39,5.0,13.0,48,0.00,,,0.02,,2013-02-20 08:22:00,
2013-02-20 03:31:00,31.0,14.0,29.92,NNE,25,10.0,26.0,48,0.00,,,0.02,,2013-02-20 08:31:00,
2013-02-20 03:41:00,31.0,14.0,29.92,NNE,25,10.0,26.0,48,0.00,,,0.02,,2013-02-20 08:41:00,
2013-02-20 03:52:00,31.0,14.0,29.92,NNE,25,10.0,26.0,48,0.00,,,0.02,,2013-02-20 08:52:00,
2013-02-20 04:01:00,31.0,14.0,29.92,NNE,20,5.0,22.0,49,0.00,,,0.02,,2013-02-20 09:01:00,
2013-02-20 04:11:00,31.0,14.0,29.92,NNE,20,5.0,22.0,49,0.00,,,0.02,,2013-02-20 09:11:00,
2013-02-20 04:21:00,31.0,14.0,29.92,NNE,20,5.0,22.0,49,0.00,,,0.02,,2013-02-20 09:21:00,
2013-02-20 04:32:00,31.0,14.0,29.92,NNE,20,5.0,22.0,49,0.00,,,0.02,,2013-02-20 09:32:00,
2013-02-20 04:42:00,31.0,14.0,29.92,NNE,20,5.0,22.0,49,0.00,,,0.02,,2013-02-20 09:42:00,
2013-02-20 05:01:00,30.0,14.0,29.93,NNE,24,9.0,25.0,51,0.00,,,0.02,,2013-02-20 10:01:00,
2013-02-20 05:12:00,30.0,14.0,29.93,NNE,24,9.0,25.0,51,0.00,,,0.02,,2013-02-20 10:12:00,
2013-02-20 05:22:00,30.0,14.0,29.93,NNE,24,9.0,25.0,51,0.00,,,0.02,,2013-02-20 10:22:00,
2013-02-20 05:32:00,30.0,14.0,29.94,North,3,11.0,23.0,51,0.00,,,0.02,,2013-02-20 10:32:00,
2013-02-20 05:42:00,30.0,14.0,29.94,North,3,11.0,23.0,51,0.00,,,0.02,,2013-02-20 10:42:00,
2013-02-20 05:52:00,29.0,13.0,29.94,NNE,22,6.0,20.0,51,0.00,,,0.02,,2013-02-20 10:52:00,
2013-02-20 06:02:00,29.0,13.0,29.95,NNE,16,7.0,18.0,51,0.00,,,0.02,,2013-02-20 11:02:00,
2013-02-20 06:11:00,29.0,14.0,29.95,NNE,15,9.0,20.0,52,0.00,,,0.02,,2013-02-20 11:11:00,
2013-02-20 06:21:00,29.0,14.0,29.95,NNE,15,9.0,20.0,52,0.00,,,0.02,,2013-02-20 11:21:00,
2013-02-20 06:32:00,29.0,14.0,29.95,NE,41,7.0,20.0,52,0.00,,,0.02,,2013-02-20 11:32:00,
2013-02-20 06:42:00,29.0,14.0,29.95,NE,41,7.0,20.0,52,0.00,,,0.02,,2013-02-20 11:42:00,
2013-02-20 06:52:00,29.0,14.0,29.95,NE,44,5.0,20.0,52,0.00,,,0.02,,2013-02-20 11:52:00,
2013-02-20 07:02:00,28.0,13.0,29.95,NNE,27,9.0,21.0,52,0.00,,,0.02,,2013-02-20 12:02:00,
2013-02-20 07:12:00,28.0,13.0,29.95,NNE,27,9.0,21.0,52,0.00,,,0.02,,2013-02-20 12:12:00,
2013-02-20 07:21:00,28.0,13.0,29.95,NNE,31,9.0,24.0,53,0.00,,,0.02,,2013-02-20 12:21:00,
2013-02-20 07:32:00,28.0,13.0,29.96,NE,56,6.0,24.0,53,0.00,,,0.02,,2013-02-20 12:32:00,
2013-02-20 07:42:00,28.0,13.0,29.96,NE,56,6.0,24.0,53,0.00,,,0.02,,2013-02-20 12:42:00,
2013-02-20 07:53:00,28.0,13.0,29.96,NE,56,6.0,24.0,53,0.00,,,0.02,,2013-02-20 12:53:00,
2013-02-20 08:01:00,28.0,14.0,29.97,NE,49,7.0,21.0,54,0.00,,,0.02,,2013-02-20 13:01:00,
2013-02-20 08:11:00,28.0,14.0,29.97,NE,49,7.0,21.0,54,0.00,,,0.02,,2013-02-20 13:11:00,
2013-02-20 08:22:00,29.0,14.0,29.97,ENE,58,6.0,16.0,52,0.00,,,0.02,,2013-02-20 13:22:00,
2013-02-20 08:32:00,30.0,14.0,29.98,NE,38,7.0,16.0,50,0.00,,,0.02,,2013-02-20 13:32:00,
2013-02-20 08:42:00,30.0,14.0,29.98,NE,38,7.0,16.0,50,0.00,,,0.02,,2013-02-20 13:42:00,
2013-02-20 08:52:00,30.0,14.0,29.98,NE,38,7.0,16.0,50,0.00,,,0.02,,2013-02-20 13:52:00,
2013-02-20 09:01:00,32.0,15.0,29.97,NE,40,10.0,21.0,48,0.00,,,0.01,,2013-02-20 14:01:00,
2013-02-20 09:11:00,32.0,15.0,29.97,NE,40,10.0,21.0,48,0.00,,,0.01,,2013-02-20 14:11:00,
2013-02-20 09:22:00,32.0,15.0,29.98,NE,50,4.0,17.0,48,0.00,,,0.01,,2013-02-20 14:22:00,
2013-02-20 09:32:00,33.0,15.0,29.98,NNE,29,6.0,17.0,47,0.00,,,0.01,,2013-02-20 14:32:00,
2013-02-20 09:42:00,34.0,16.0,29.98,North,3,6.0,14.0,47,0.00,,,0.01,,2013-02-20 14:42:00,
2013-02-20 09:52:00,34.0,16.0,29.98,North,3,6.0,14.0,47,0.00,,,0.01,,2013-02-20 14:52:00,
2013-02-20 10:01:00,34.0,16.0,29.98,North,3,6.0,14.0,47,0.00,,,0.01,,2013-02-20 15:01:00,
2013-02-20 10:11:00,35.0,17.0,30.00,North,3,7.0,15.0,47,0.00,,,0.00,,2013-02-20 15:11:00,
2013-02-20 10:22:00,35.0,17.0,30.00,North,3,7.0,15.0,47,0.00,,,0.00,,2013-02-20 15:22:00,
2013-02-20 10:32:00,37.0,18.0,30.01,North,354,5.0,14.0,46,0.00,,,0.00,,2013-02-20 15:32:00,
2013-02-20 10:42:00,38.0,19.0,30.01,NNE,22,7.0,15.0,45,0.00,,,0.00,,2013-02-20 15:42:00,
2013-02-20 11:01:00,39.0,18.0,30.01,NNW,343,5.0,13.0,43,0.00,,,0.00,,2013-02-20 16:01:00,
2013-02-20 11:12:00,39.0,18.0,30.01,NNW,343,5.0,13.0,43,0.00,,,0.00,,2013-02-20 16:12:00,
2013-02-20 11:21:00,39.0,18.0,30.01,NNW,343,5.0,13.0,43,0.00,,,0.00,,2013-02-20 16:21:00,
2013-02-20 11:32:00,39.0,18.0,30.01,NNW,343,5.0,13.0,43,0.00,,,0.00,,2013-02-20 16:32:00,
2013-02-20 11:42:00,42.0,19.0,30.01,NW,324,3.0,12.0,40,0.00,,,0.00,,2013-02-20 16:42:00,
2013-02-20 12:01:00,43.0,20.0,30.01,WNW,290,5.0,12.0,39,0.00,,,0.00,,2013-02-20 17:01:00,
2013-02-20 12:11:00,44.0,20.0,30.00,North,3,7.0,16.0,38,0.00,,,0.00,,2013-02-20 17:11:00,
2013-02-20 12:42:00,46.0,21.0,30.01,NW,326,3.0,12.0,36,0.00,,,0.00,,2013-02-20 17:42:00,
2013-02-20 12:52:00,46.0,21.0,30.01,NW,326,3.0,12.0,36,0.00,,,0.00,,2013-02-20 17:52:00,
2013-02-20 13:32:00,47.0,19.0,29.98,NNW,336,3.0,18.0,32,0.00,,,0.00,,2013-02-20 18:32:00,
2013-02-20 13:52:00,48.0,19.0,29.98,West,262,3.0,13.0,31,0.00,,,0.00,,2013-02-20 18:52:00,
2013-02-20 14:01:00,49.0,18.0,29.98,West,261,7.0,14.0,29,0.00,,,0.00,,2013-02-20 19:01:00,
2013-02-20 14:31:00,50.0,18.0,29.98,NW,326,7.0,13.0,28,0.00,,,0.00,,2013-02-20 19:31:00,
2013-02-20 14:52:00,51.0,18.0,29.98,NNW,345,4.0,13.0,27,0.00,,,0.00,,2013-02-20 19:52:00,
2013-02-20 15:01:00,52.0,18.0,29.98,NNE,23,2.0,16.0,26,0.00,,,0.00,,2013-02-20 20:01:00,
2013-02-20 15:11:00,52.0,18.0,29.98,NW,323,6.0,12.0,26,0.00,,,0.00,,2013-02-20 20:11:00,
2013-02-20 15:21:00,52.0,18.0,29.98,NW,323,6.0,12.0,26,0.00,,,0.00,,2013-02-20 20:21:00,
2013-02-20 15:31:00,51.0,17.0,29.98,WNW,295,3.0,13.0,26,0.00,,,0.00,,2013-02-20 20:31:00,
2013-02-20 16:01:00,51.0,18.0,29.98,North,0,2.0,13.0,27,0.00,,,0.00,,2013-02-20 21:01:00,
2013-02-20 16:11:00,50.0,16.0,29.98,West,276,6.0,13.0,26,0.00,,,0.00,,2013-02-20 21:11:00,
2013-02-20 16:21:00,50.0,16.0,29.98,West,276,6.0,13.0,26,0.00,,,0.00,,2013-02-20 21:21:00,
2013-02-20 16:32:00,49.0,16.0,29.98,NE,35,6.0,14.0,27,0.00,,,0.00,,2013-02-20 21:32:00,
2013-02-20 16:42:00,49.0,16.0,29.98,NE,35,6.0,14.0,27,0.00,,,0.00,,2013-02-20 21:42:00,
2013-02-20 16:52:00,48.0,16.0,29.99,NNE,24,7.0,14.0,28,0.00,,,0.00,,2013-02-20 21:52:00,
2013-02-20 17:01:00,47.0,16.0,30.00,NNE,25,4.0,12.0,28,0.00,,,0.00,,2013-02-20 22:01:00,
2013-02-20 17:11:00,46.0,16.0,30.00,North,11,0.0,13.0,30,0.00,,,0.00,,2013-02-20 22:11:00,
2013-02-20 17:21:00,46.0,16.0,30.00,North,11,0.0,13.0,30,0.00,,,0.00,,2013-02-20 22:21:00,
2013-02-20 17:31:00,45.0,17.0,30.01,NE,51,1.0,8.0,32,0.00,,,0.00,,2013-02-20 22:31:00,
2013-02-20 17:42:00,45.0,17.0,30.01,NE,51,1.0,8.0,32,0.00,,,0.00,,2013-02-20 22:42:00,
2013-02-20 17:52:00,45.0,17.0,30.01,NE,51,1.0,8.0,32,0.00,,,0.00,,2013-02-20 22:52:00,
2013-02-20 18:01:00,42.0,16.0,30.03,East,98,2.0,7.0,35,0.00,,,0.00,,2013-02-20 23:01:00,
2013-02-20 18:12:00,41.0,17.0,30.03,North,0,0.0,5.0,37,0.00,,,0.00,,2013-02-20 23:12:00,
2013-02-20 18:22:00,41.0,17.0,30.03,North,0,0.0,5.0,37,0.00,,,0.00,,2013-02-20 23:22:00,
2013-02-20 18:32:00,41.0,17.0,30.03,North,0,0.0,5.0,37,0.00,,,0.00,,2013-02-20 23:32:00,
2013-02-20 18:42:00,41.0,17.0,30.03,North,0,0.0,5.0,37,0.00,,,0.00,,2013-02-20 23:42:00,
2013-02-20 18:52:00,39.0,16.0,30.05,ENE,64,2.0,8.0,39,0.00,,,0.00,,2013-02-20 23:52:00,
2013-02-20 19:03:00,39.0,16.0,30.05,ENE,64,2.0,8.0,39,0.00,,,0.00,,2013-02-21 00:03:00,
2013-02-20 19:11:00,39.0,16.0,30.05,ENE,64,2.0,8.0,39,0.00,,,0.00,,2013-02-21 00:11:00,
2013-02-20 19:22:00,39.0,16.0,30.05,ENE,64,2.0,8.0,39,0.00,,,0.00,,2013-02-21 00:22:00,
2013-02-20 19:32:00,36.0,16.0,30.07,NE,35,7.0,14.0,43,0.00,,,0.00,,2013-02-21 00:32:00,
2013-02-20 19:42:00,35.0,15.0,30.08,NNE,22,6.0,15.0,44,0.00,,,0.00,,2013-02-21 00:42:00,
2013-02-20 19:52:00,35.0,15.0,30.08,NNE,22,6.0,15.0,44,0.00,,,0.00,,2013-02-21 00:52:00,
2013-02-20 20:01:00,35.0,15.0,30.09,NE,40,4.0,13.0,44,0.00,,,0.00,,2013-02-21 01:01:00,
2013-02-20 20:11:00,35.0,15.0,30.09,NE,40,4.0,13.0,44,0.00,,,0.00,,2013-02-21 01:11:00,
2013-02-20 20:21:00,34.0,15.0,30.09,NNE,30,4.0,15.0,45,0.00,,,0.00,,2013-02-21 01:21:00,
2013-02-20 20:32:00,34.0,15.0,30.09,NE,38,6.0,13.0,46,0.00,,,0.00,,2013-02-21 01:32:00,
2013-02-20 20:42:00,34.0,15.0,30.09,NE,38,6.0,13.0,46,0.00,,,0.00,,2013-02-21 01:42:00,
2013-02-20 20:52:00,34.0,16.0,30.09,NW,307,3.0,12.0,48,0.00,,,0.00,,2013-02-21 01:52:00,
2013-02-20 21:01:00,33.0,15.0,30.09,North,8,3.0,13.0,48,0.00,,,0.00,,2013-02-21 02:01:00,
2013-02-20 21:11:00,33.0,15.0,30.09,North,8,3.0,13.0,48,0.00,,,0.00,,2013-02-21 02:11:00,
2013-02-20 21:21:00,33.0,15.0,30.11,East,92,0.0,9.0,48,0.00,,,0.00,,2013-02-21 02:21:00,
2013-02-20 21:32:00,33.0,16.0,30.11,West,259,4.0,14.0,49,0.00,,,0.00,,2013-02-21 02:32:00,
2013-02-20 21:42:00,33.0,16.0,30.11,West,259,4.0,14.0,49,0.00,,,0.00,,2013-02-21 02:42:00,
2013-02-20 21:52:00,33.0,16.0,30.11,West,259,4.0,14.0,49,0.00,,,0.00,,2013-02-21 02:52:00,
2013-02-20 22:02:00,33.0,16.0,30.11,NE,44,2.0,8.0,50,0.00,,,0.00,,2013-02-21 03:02:00,
2013-02-20 22:12:00,33.0,16.0,30.11,ENE,57,1.0,7.0,50,0.00,,,0.00,,2013-02-21 03:12:00,
2013-02-20 22:21:00,33.0,16.0,30.11,ENE,57,1.0,7.0,50,0.00,,,0.00,,2013-02-21 03:21:00,
2013-02-20 22:32:00,33.0,16.0,30.11,ENE,57,1.0,7.0,50,0.00,,,0.00,,2013-02-21 03:32:00,
2013-02-20 22:42:00,33.0,16.0,30.11,ENE,57,1.0,7.0,50,0.00,,,0.00,,2013-02-21 03:42:00,
2013-02-20 22:52:00,33.0,16.0,30.11,ENE,57,1.0,7.0,50,0.00,,,0.00,,2013-02-21 03:52:00,
2013-02-20 23:01:00,32.0,16.0,30.10,NNE,19,2.0,8.0,51,0.00,,,0.00,,2013-02-21 04:01:00,
2013-02-20 23:11:00,32.0,16.0,30.10,NNE,19,2.0,8.0,51,0.00,,,0.00,,2013-02-21 04:11:00,
2013-02-20 23:22:00,33.0,17.0,30.10,ENE,61,5.0,9.0,51,0.00,,,0.00,,2013-02-21 04:22:00,
2013-02-20 23:32:00,33.0,17.0,30.10,ENE,61,5.0,9.0,51,0.00,,,0.00,,2013-02-21 04:32:00,
2013-02-20 23:42:00,33.0,17.0,30.10,ENE,61,5.0,9.0,51,0.00,,,0.00,,2013-02-21 04:42:00,
2013-02-20 23:52:00,32.0,16.0,30.10,NE,35,3.0,8.0,52,0.00,,,0.00,,2013-02-21 04:52:00,